Location: Albany
(35.0170°S, 117.8920°E)
Time: 10:01:24
(UTC+08:00)

S-56A Canister/Altair - Pass Details

Date: 30 January 2021
Orbit: 632 x 2501 km, 38.9° (Epoch: 25 February)

Event Time Altitude Azimuth Distance (km) Brightness Sun altitude
Rises 12:28:10 0° 292° (WNW) 5,003 11.8 72.5°
Reaches altitude 10° 12:31:04 10° 292° (WNW) 4,228 11.6 72.5°
Maximum altitude 12:43:20 90° 17° (NNE) 2,329 11.8 71.9°
Drops below altitude 10° 12:58:46 10° 108° (ESE) 5,173 11.7 70.7°
Sets 13:02:44 0° 107° (ESE) 6,134 12.0 70.3°
